Szolnok, Hungary

11:45 AM CET on February 22, 2017 (GMT +0100)
Szolnok

Weather History for LHSN - October, 2011

Change the Weather History Date:

Wednesday, October 26, 2011

  Actual Average (LHBP) Record (LHBP)
Temperature  
Mean Temperature 51 °F -  
Max Temperature 60 °F 56 °F 71 °F (2005)
Min Temperature 42 °F 38 °F 24 °F (1997)
Degree Days  
Heating Degree Days 14    
Growing Degree Days 1 (Base 50)    
Moisture  
Dew Point 42 °F    
Average Humidity 73    
Maximum Humidity 93    
Minimum Humidity 52    
Precipitation  
Precipitation 0.00 in - - ()
Sea Level Pressure  
Sea Level Pressure 30.19 in    
Wind  
Wind Speed 6 mph ()    
Max Wind Speed 11 mph    
Max Gust Speed -    
Visibility 1.8 miles    
Events      
Averages and records for this station are not official NWS values.
T = Trace of Precipitation, MM = Missing Value Source: Averaged Metar Reports

Daily Weather History Graph

Daily Weather History Graph

Search for Another Location

Airport or City:

Trip Planner

Search our weather history database for the weather conditions in past years. The results will help you decide how hot, cold, wet, or windy it might be!

Date:

Astronomy

Oct. 26, 2011 Rise Set
Actual Time 7:12 AM CEST 5:33 PM CEST
Civil Twilight 6:40 AM CEST 6:04 PM CEST
Nautical Twilight 6:05 AM CEST 6:40 PM CEST
Astronomical Twilight 5:29 AM CEST 7:15 PM CEST
Moon 6:38 AM CEST (10/26) 4:58 PM CEST (10/26)
Length of Visible Light 11h 23m
Length of Day
10h 20m
Waning Crescent, 0% of the Moon is Illuminated
Oct 26
Waning Crescent
Oct 26
New
Nov 2
First Quarter
Nov 10
Full
Nov 18
Last Quarter

Hourly Weather History & Observations

Time (CEST) Temp. Windchill Dew Point Humidity Pressure Visibility Wind Dir Wind Speed Gust Speed Precip Events Conditions
12:15 AM 48.2 °F - 44.6 °F 87% 30.15 in - East 4.5 mph - N/A   Clear
12:45 AM 50.0 °F - 42.8 °F 76% 30.15 in - East 6.7 mph - N/A   Clear
1:15 AM 48.2 °F - 42.8 °F 82% 30.18 in - East 4.5 mph - N/A   Clear
1:45 AM 50.0 °F - 42.8 °F 76% 30.18 in - ESE 4.5 mph - N/A   Clear
2:15 AM 48.2 °F - 41.0 °F 76% 30.15 in - ESE 6.7 mph - N/A   Clear
3:15 AM 46.4 °F 43.0 °F 39.2 °F 76% 30.15 in - SE 6.7 mph - N/A   Clear
3:45 AM - - - N/A% - - SE 8.9 mph - N/A   Clear
4:15 AM 44.6 °F 40.8 °F 39.2 °F 81% 30.18 in - East 6.7 mph - N/A   Clear
4:45 AM 44.6 °F 40.8 °F 39.2 °F 81% 30.18 in - East 6.7 mph - N/A   Clear
5:45 AM 42.8 °F 38.7 °F 39.2 °F 87% 30.18 in - ENE 6.7 mph - N/A   Clear
6:15 AM 42.8 °F 40.2 °F 41.0 °F 93% 30.18 in - East 4.5 mph - N/A   Clear
6:45 AM - - - N/A% - - SE 6.7 mph - N/A   Clear
7:15 AM 44.6 °F 39.8 °F 41.0 °F 87% 30.18 in - East 8.9 mph - N/A   Clear
7:45 AM 44.6 °F 39.8 °F 39.2 °F 81% 30.18 in - East 8.9 mph - N/A   Clear
8:15 AM 44.6 °F 39.8 °F 41.0 °F 87% 30.18 in - East 8.9 mph - N/A   Clear
8:45 AM 46.4 °F 42.0 °F 41.0 °F 81% 30.21 in - East 8.9 mph - N/A   Clear
9:15 AM 48.2 °F - 42.8 °F 82% 30.21 in - ESE 8.9 mph - N/A   Clear
9:45 AM 51.8 °F - 42.8 °F 71% 30.21 in - ESE 6.7 mph - N/A   Clear
10:15 AM 53.6 °F - 42.8 °F 67% 30.21 in - SE 11.2 mph - N/A   Clear
10:45 AM 53.6 °F - 41.0 °F 62% 30.21 in - SE 11.2 mph - N/A   Clear
11:15 AM 55.4 °F - 42.8 °F 63% 30.21 in - SSE 11.2 mph - N/A   Clear
11:45 AM 57.2 °F - 41.0 °F 55% 30.21 in - SSE 11.2 mph - N/A   Clear
12:15 PM 57.2 °F - 42.8 °F 59% 30.21 in - SSE 8.9 mph - N/A   Clear
12:45 PM 57.2 °F - 42.8 °F 59% 30.21 in - SE 8.9 mph - N/A   Clear
1:15 PM 59.0 °F - 42.8 °F 55% 30.21 in - SE 6.7 mph - N/A   Clear
2:15 PM 59.0 °F - 42.8 °F 55% 30.21 in - SE 11.2 mph - N/A   Clear
2:45 PM 60.8 °F - 42.8 °F 52% 30.18 in - ESE 6.7 mph - N/A   Clear
3:15 PM 60.8 °F - 42.8 °F 52% 30.18 in - SE 8.9 mph - N/A   Clear
3:45 PM 60.8 °F - 42.8 °F 52% 30.18 in - SE 8.9 mph - N/A   Clear
4:15 PM 59.0 °F - 42.8 °F 55% 30.18 in - SSE 6.7 mph - N/A   Clear
4:45 PM 59.0 °F - 44.6 °F 59% 30.18 in - SSE 6.7 mph - N/A   Clear
5:15 PM 57.2 °F - 46.4 °F 67% 30.18 in - SE 4.5 mph - N/A   Clear
5:45 PM 57.2 °F - 44.6 °F 63% 30.18 in - SE 4.5 mph - N/A   Clear
6:15 PM 53.6 °F - 44.6 °F 72% 30.18 in - East 4.5 mph - N/A   Clear
6:45 PM - - - N/A% - 1.9 mi ESE 6.7 mph - N/A   Clear
7:15 PM 50.0 °F - 42.8 °F 76% 30.18 in - ENE 4.5 mph - N/A   Clear
7:45 PM 50.0 °F - 42.8 °F 76% 30.18 in - ENE 4.5 mph - N/A   Clear
8:15 PM 48.2 °F - 42.8 °F 82% 30.18 in - Variable 4.5 mph - N/A   Clear
8:45 PM 48.2 °F - 42.8 °F 82% 30.18 in - SE 4.5 mph - N/A   Clear
9:15 PM 50.0 °F - 42.8 °F 76% 30.21 in - SE 4.5 mph - N/A   Clear
9:45 PM - - - N/A% - 1.7 mi Variable 4.5 mph - N/A   Clear
10:15 PM 46.4 °F - 41.0 °F 81% 30.21 in - Variable 2.2 mph - N/A   Clear
10:45 PM 44.6 °F - 41.0 °F 87% 30.21 in - Calm Calm - N/A   Clear
11:15 PM 44.6 °F - 42.8 °F 93% 30.21 in - Calm Calm - N/A   Clear
11:45 PM 46.4 °F 44.4 °F 42.8 °F 87% 30.21 in - South 4.5 mph - N/A   Clear